• In Belarus
  • List of Countries
  • For 7 days
  • Water Temperature
  • Satellite Maps
  • Weather Map
  • Weather Widgets
  • user-avatar
    Login

    Hourly Weather Liepaja

    Today, 15 December, Saturday

    Time Temperature Precipitation Wind Pressure Humidity
    00:00 -2°C° 0 mm 3 mps 775 mmHg 82%
    01:00 -2°C° 0 mm 3 mps 775 mmHg 82%
    02:00 -3°C° 0 mm 4 mps 775 mmHg 81%
    03:00 -3°C° 0 mm 4 mps 775 mmHg 80%
    04:00 -3°C° 0 mm 4 mps 775 mmHg 79%
    05:00 -3°C° 0 mm 4 mps 775 mmHg 80%
    06:00 -3°C° 0 mm 4 mps 775 mmHg 80%
    07:00 -3°C° 0 mm 4 mps 775 mmHg 81%
    08:00 -3°C° 0 mm 4 mps 775 mmHg 80%
    09:00 -3°C° 0 mm 4 mps 775 mmHg 79%
    10:00 -3°C° 0 mm 4 mps 776 mmHg 78%
    11:00 -3°C° 0 mm 4 mps 776 mmHg 77%
    12:00 -3°C° 0 mm 4 mps 775 mmHg 77%
    13:00 -3°C° 0 mm 4 mps 775 mmHg 76%
    14:00 -3°C° 0 mm 4 mps 775 mmHg 79%
    15:00 -3°C° 0 mm 4 mps 775 mmHg 81%
    16:00 -4°C° 0 mm 4 mps 775 mmHg 84%
    17:00 -4°C° 0 mm 4 mps 775 mmHg 84%
    18:00 -4°C° 0 mm 4 mps 775 mmHg 85%
    19:00 -4°C° 0 mm 4 mps 775 mmHg 86%
    20:00 -4°C° 0 mm 4 mps 775 mmHg 85%
    21:00 -4°C° 0 mm 4 mps 775 mmHg 84%
    22:00 -4°C° 0 mm 4 mps 774 mmHg 83%
    23:00 -5°C° 0 mm 5 mps 774 mmHg 82%

    Tomorrow, 16 December, Sunday

    Time Temperature Precipitation Wind Pressure Humidity
    00:00 -5°C° 0 mm 5 mps 774 mmHg 82%
    01:00 -5°C° 0 mm 5 mps 774 mmHg 81%
    02:00 -5°C° 0 mm 5 mps 773 mmHg 81%
    03:00 -5°C° 0 mm 5 mps 773 mmHg 82%
    04:00 -5°C° 0 mm 6 mps 772 mmHg 83%
    05:00 -5°C° 0 mm 6 mps 772 mmHg 82%
    06:00 -5°C° 0 mm 6 mps 772 mmHg 82%
    07:00 -5°C° 0 mm 6 mps 771 mmHg 81%
    08:00 -6°C° 0 mm 7 mps 771 mmHg 79%
    09:00 -6°C° 0 mm 7 mps 770 mmHg 76%
    10:00 -4°C° 0 mm 7 mps 770 mmHg 74%
    11:00 -4°C° 0.1 mm 7 mps 769 mmHg 74%
    12:00 -4°C° 0.1 mm 7 mps 769 mmHg 73%
    13:00 -4°C° 0.1 mm 7 mps 768 mmHg 73%
    14:00 -6°C° 0.4 mm 7 mps 768 mmHg 77%
    15:00 -6°C° 0.4 mm 7 mps 767 mmHg 81%
    16:00 -6°C° 0.4 mm 8 mps 767 mmHg 85%
    17:00 -6°C° 0.5 mm 8 mps 766 mmHg 86%
    18:00 -6°C° 0.5 mm 8 mps 766 mmHg 86%
    19:00 -6°C° 0.5 mm 8 mps 765 mmHg 87%
    20:00 -6°C° 0.3 mm 7 mps 765 mmHg 86%
    21:00 -6°C° 0.3 mm 7 mps 765 mmHg 85%
    22:00 -6°C° 0.3 mm 7 mps 764 mmHg 84%
    23:00 -6°C° 0.1 mm 7 mps 764 mmHg 84%

    Day after tomorrow, 17 December, Monday

    Time Temperature Precipitation Wind Pressure Humidity
    00:00 -4°C° 0.1 mm 7 mps 764 mmHg 84%
    01:00 -4°C° 0.1 mm 7 mps 764 mmHg 84%
    02:00 -4°C° 0.1 mm 7 mps 764 mmHg 85%
    03:00 -4°C° 0.1 mm 7 mps 764 mmHg 86%
    04:00 -4°C° 0.1 mm 6 mps 764 mmHg 87%
    05:00 -4°C° 0 mm 6 mps 764 mmHg 87%
    06:00 -4°C° 0 mm 6 mps 764 mmHg 88%
    07:00 -4°C° 0 mm 6 mps 764 mmHg 89%
    08:00 -4°C° 0 mm 6 mps 764 mmHg 88%
    09:00 -4°C° 0 mm 6 mps 764 mmHg 88%
    10:00 -4°C° 0 mm 6 mps 764 mmHg 87%
    11:00 -3°C° 0 mm 6 mps 764 mmHg 87%
    12:00 -2°C° 0 mm 5 mps 764 mmHg 86%
    13:00 -2°C° 0 mm 5 mps 765 mmHg 85%
    14:00 -2°C° 0.1 mm 5 mps 765 mmHg 86%
    15:00 -2°C° 0.1 mm 5 mps 765 mmHg 88%
    16:00 -4°C° 0.1 mm 5 mps 765 mmHg 89%
    17:00 -4°C° 0.1 mm 5 mps 765 mmHg 90%
    18:00 -2°C° 0.1 mm 5 mps 765 mmHg 90%
    19:00 -2°C° 0.1 mm 5 mps 766 mmHg 91%
    20:00 -3°C° 0.2 mm 6 mps 766 mmHg 91%
    21:00 -2°C° 0.2 mm 6 mps 766 mmHg 92%
    22:00 -1°C° 0.2 mm 6 mps 766 mmHg 92%
    23:00 -1°C° 0.1 mm 6 mps 767 mmHg 92%

    18 December, Tuesday

    Time Temperature Precipitation Wind Pressure Humidity
    00:00 +1°C° 0.1 mm 5 mps 767 mmHg 92%
    01:00 +1°C° 0.1 mm 5 mps 767 mmHg 92%
    02:00 +1°C° 0.1 mm 5 mps 767 mmHg 92%
    03:00 +1°C° 0.1 mm 5 mps 768 mmHg 92%
    04:00 +1°C° 0.1 mm 4 mps 768 mmHg 93%
    05:00 +1°C° 0.1 mm 4 mps 768 mmHg 93%
    06:00 0°C° 0.1 mm 4 mps 768 mmHg 94%
    07:00 0°C° 0.1 mm 4 mps 769 mmHg 94%
    08:00 0°C° 0.1 mm 4 mps 769 mmHg 94%
    09:00 0°C° 0.1 mm 4 mps 769 mmHg 94%
    10:00 0°C° 0.1 mm 4 mps 769 mmHg 94%
    11:00 0°C° 0.1 mm 5 mps 769 mmHg 94%
    12:00 0°C° 0.1 mm 5 mps 770 mmHg 94%
    13:00 0°C° 0.1 mm 5 mps 770 mmHg 94%
    14:00 0°C° 0.1 mm 5 mps 770 mmHg 94%
    15:00 0°C° 0.1 mm 5 mps 770 mmHg 94%
    16:00 -1°C° 0.1 mm 5 mps 770 mmHg 94%
    17:00 -1°C° 0 mm 5 mps 770 mmHg 94%
    18:00 -1°C° 0 mm 5 mps 770 mmHg 94%
    19:00 -1°C° 0 mm 5 mps 769 mmHg 94%
    20:00 -2°C° 0 mm 5 mps 769 mmHg 94%
    21:00 -2°C° 0 mm 5 mps 769 mmHg 94%
    22:00 -3°C° 0 mm 6 mps 769 mmHg 94%
    23:00 -3°C° 0 mm 6 mps 769 mmHg 93%

    19 December, Wednesday

    Time Temperature Precipitation Wind Pressure Humidity
    00:00 -3°C° 0 mm 6 mps 769 mmHg 93%
    01:00 -3°C° 0 mm 6 mps 769 mmHg 93%
    02:00 -3°C° 0 mm 6 mps 769 mmHg 92%
    03:00 -3°C° 0 mm 6 mps 768 mmHg 92%
    04:00 -3°C° 0 mm 6 mps 768 mmHg 92%
    05:00 -4°C° 0 mm 7 mps 768 mmHg 92%
    06:00 -4°C° 0 mm 7 mps 768 mmHg 92%
    07:00 -4°C° 0 mm 7 mps 768 mmHg 92%
    08:00 -4°C° 0 mm 7 mps 767 mmHg 91%
    09:00 -5°C° 0 mm 8 mps 767 mmHg 89%
    10:00 -5°C° 0 mm 8 mps 767 mmHg 87%
    11:00 -5°C° 0 mm 8 mps 767 mmHg 86%
    12:00 -5°C° 0 mm 8 mps 766 mmHg 85%
    13:00 -5°C° 0 mm 8 mps 766 mmHg 83%
    14:00 -5°C° 0 mm 8 mps 765 mmHg 84%
    15:00 -5°C° 0 mm 8 mps 765 mmHg 84%
    16:00 -5°C° 0 mm 9 mps 765 mmHg 85%
    17:00 -5°C° 0 mm 9 mps 764 mmHg 84%
    18:00 -5°C° 0 mm 9 mps 764 mmHg 84%
    19:00 -5°C° 0 mm 9 mps 763 mmHg 84%
    20:00 -5°C° 0 mm 9 mps 763 mmHg 84%
    21:00 -5°C° 0 mm 9 mps 763 mmHg 84%
    22:00 -5°C° 0 mm 9 mps 763 mmHg 83%
    23:00 -5°C° 0.1 mm 8 mps 762 mmHg 84%

    20 December, Thursday

    Time Temperature Precipitation Wind Pressure Humidity
    00:00 -5°C° 0.1 mm 8 mps 762 mmHg 84%
    01:00 -5°C° 0.1 mm 8 mps 762 mmHg 85%
    02:00 -5°C° 0.3 mm 8 mps 761 mmHg 86%
    03:00 -5°C° 0.3 mm 8 mps 761 mmHg 87%
    04:00 -5°C° 0.3 mm 8 mps 761 mmHg 88%
    05:00 -3°C° 0.1 mm 7 mps 761 mmHg 88%
    06:00 -3°C° 0.1 mm 7 mps 761 mmHg 89%
    07:00 -3°C° 0.1 mm 7 mps 761 mmHg 89%
    08:00 -2°C° 0.1 mm 7 mps 761 mmHg 89%
    09:00 -2°C° 0.1 mm 7 mps 761 mmHg 90%
    10:00 -2°C° 0.1 mm 6 mps 761 mmHg 90%
    11:00 -2°C° 0.1 mm 6 mps 761 mmHg 90%
    12:00 -2°C° 0.1 mm 6 mps 761 mmHg 91%
    13:00 -2°C° 0.1 mm 6 mps 761 mmHg 91%
    14:00 -2°C° 0.1 mm 6 mps 761 mmHg 91%
    15:00 -2°C° 0.1 mm 6 mps 761 mmHg 91%
    16:00 -2°C° 0.1 mm 6 mps 761 mmHg 92%
    17:00 -2°C° 0 mm 6 mps 761 mmHg 92%
    18:00 -2°C° 0 mm 6 mps 761 mmHg 93%
    19:00 -2°C° 0 mm 6 mps 761 mmHg 93%
    20:00 -2°C° 0 mm 6 mps 761 mmHg 93%
    21:00 -2°C° 0 mm 6 mps 761 mmHg 93%
    22:00 -2°C° 0 mm 6 mps 761 mmHg 93%
    23:00 -2°C° 0 mm 6 mps 761 mmHg 93%
    Show more